Location: Bord�res
(43.2000°N, 0.2167°W)
Time: 14:28:41
(UTC+00:00)

SJ 16-02 - Pass Details

Date: 03 March 2021
Orbit: 605 x 617 km, 75.0° (Epoch: 21 April)

Event Time Altitude Azimuth Distance (km) Brightness Sun altitude
Rises 19:34:42 0° 353° (N) 2,882 5.0 -19.3°
Reaches altitude 10° 19:37:26 10° 10° (N) 1,975 3.9 -19.8°
Enters shadow 19:39:11 17° 31° (NNE) 1,545 3.2 -20.1°
